EW6606 Weather Reports


time (UTC)temp
C
wind
direction
speed
KPH
gust
KPH
rain 1hr
cm
rain 24hr
cm
rain mn
cm
humidity
%
barometer
mb
20260504215032 25 144 3.2 6.4 0.00 0.00 0.00 41 1014.1
20260504214527 25 135 3.2 8.0 0.00 0.00 0.00 42 1014.1
20260504214024 25 19 3.2 9.7 0.00 0.00 0.00 44 1013.9
20260504213521 25 359 4.8 6.4 0.00 0.00 0.00 43 1014.2
20260504213018 25 77 3.2 11.3 0.00 0.00 0.00 42 1014.3
20260504212514 25 167 1.6 6.4 0.00 0.00 0.00 42 1014.1
20260504212011 25 115 3.2 8.0 0.00 0.00 0.00 40 1014.2
20260504211508 25 149 4.8 8.0 0.00 0.00 0.00 41 1014.3
20260504211005 25 179 3.2 9.7 0.00 0.00 0.00 41 1014.2
20260504210502 25 181 1.6 11.3 0.00 0.00 0.00 41 1014.4
20260504205959 25 359 1.6 4.8 0.00 0.00 0.00 42 1014.4
20260504205456 25 150 1.6 4.8 0.00 0.00 0.00 42 1014.5
20260504204955 25 141 3.2 4.8 0.00 0.00 0.00 42 1014.5
20260504204452 25 272 4.8 8.0 0.00 0.00 0.00 43 1014.4
20260504203951 25 76 3.2 4.8 0.00 0.00 0.00 43 1014.5
20260504203449 25 112 3.2 6.4 0.00 0.00 0.00 43 1014.8
20260504202945 25 138 3.2 6.4 0.00 0.00 0.00 42 1014.8
20260504202441 25 243 1.6 8.0 0.00 0.00 0.00 43 1014.5
20260504201938 25 341 0.0 4.8 0.00 0.00 0.00 43 1014.6
20260504201435 25 302 3.2 8.0 0.00 0.00 0.00 43 1014.6
20260504200933 25 126 3.2 4.8 0.00 0.00 0.00 43 1014.6
20260504200429 25 113 1.6 4.8 0.00 0.00 0.00 44 1014.8
20260504195926 25 89 0.0 3.2 0.00 0.00 0.00 44 1014.9
20260504195422 25 158 1.6 4.8 0.00 0.00 0.00 44 1015.0
20260504194919 25 112 1.6 6.4 0.00 0.00 0.00 43 1015.1
20260504194414 25 350 0.0 4.8 0.00 0.00 0.00 43 1015.0
20260504193911 25 209 0.0 11.3 0.00 0.00 0.00 43 1015.0
20260504193408 25 163 0.0 6.4 0.00 0.00 0.00 41 1015.4
20260504192907 25 129 4.8 9.7 0.00 0.00 0.00 41 1015.4
20260504192404 25 112 4.8 4.8 0.00 0.00 0.00 44 1015.3
20260504191902 25 127 1.6 8.0 0.00 0.00 0.00 45 1015.4
20260504191400 25 112 4.8 6.4 0.00 0.00 0.00 45 1015.5
20260504190855 25 168 3.2 3.2 0.00 0.00 0.00 46 1015.6
20260504190351 24 105 3.2 6.4 0.00 0.00 0.00 45 1015.7
20260504185848 24 117 0.0 11.3 0.00 0.00 0.00 42 1015.7
20260504185345 25 190 3.2 8.0 0.00 0.00 0.00 44 1015.7
20260504184841 25 114 3.2 4.8 0.00 0.00 0.00 44 1015.6
20260504184337 24 286 4.8 8.0 0.00 0.00 0.00 45 1015.8
20260504183833 24 180 4.8 9.7 0.00 0.00 0.00 45 1015.9
20260504183331 24 138 0.0 6.4 0.00 0.00 0.00 45 1016.0
20260504182828 24 154 4.8 4.8 0.00 0.00 0.00 44 1016.1
20260504182325 24 142 1.6 6.4 0.00 0.00 0.00 46 1016.2
20260504181822 24 166 1.6 3.2 0.00 0.00 0.00 46 1016.3
20260504181320 23 191 0.0 1.6 0.00 0.00 0.00 46 1016.4
20260504180819 23 117 3.2 8.0 0.00 0.00 0.00 45 1016.4
20260504180317 24 153 3.2 9.7 0.00 0.00 0.00 44 1016.5
20260504175814 24 217 3.2 6.4 0.00 0.00 0.00 45 1016.5
20260504175311 24 144 3.2 8.0 0.00 0.00 0.00 48 1016.5
20260504174809 24 330 1.6 6.4 0.00 0.00 0.00 49 1016.5
20260504174306 23 283 0.0 3.2 0.00 0.00 0.00 48 1016.7
20260504173803 23 278 3.2 6.4 0.00 0.00 0.00 47 1016.7
20260504173300 23 220 1.6 6.4 0.00 0.00 0.00 48 1016.9
20260504172756 23 10 4.8 6.4 0.00 0.00 0.00 47 1016.9
20260504172253 23 313 4.8 14.5 0.00 0.00 0.00 49 1017.0
20260504171749 23 114 0.0 3.2 0.00 0.00 0.00 49 1017.0
20260504171246 23 124 0.0 4.8 0.00 0.00 0.00 48 1017.2
20260504170743 23 261 3.2 8.0 0.00 0.00 0.00 50 1017.1
20260504170241 23 141 0.0 3.2 0.00 0.00 0.00 49 1017.2
20260504160159 22 84 0.0 6.4 0.00 0.00 0.00 52 1018.0
20260504151127 20 182 4.8 9.7 0.00 0.00 0.00 60 1017.8
20260504150624 20 123 3.2 4.8 0.00 0.00 0.00 60 1018.0
20260504150121 20 114 0.0 4.8 0.00 0.00 0.00 60 1017.9
20260504141049 18 216 3.2 3.2 0.00 0.00 0.00 66 1018.2
20260504140546 17 241 1.6 4.8 0.00 0.00 0.00 65 1018.4
20260504130510 13 132 3.2 4.8 0.00 0.00 0.00 82 1018.2
20260504110358 8 104 1.6 3.2 0.00 0.00 0.00 89 1017.5
20260504100315 8 69 0.0 3.2 0.00 0.00 0.00 88 1017.7
20260504081708 9 102 1.6 3.2 0.00 0.00 0.00 86 1017.7
20260504081205 9 110 1.6 3.2 0.00 0.00 0.00 86 1017.8
20260504080701 9 112 1.6 1.6 0.00 0.00 0.00 86 1017.7
20260504080157 9 104 0.0 1.6 0.00 0.00 0.00 86 1017.8
20260504070125 10 111 0.0 1.6 0.00 0.00 0.00 85 1018.2
20260504050514 10 105 1.6 3.2 0.00 0.00 0.00 83 1018.6
20260504050011 10 107 1.6 3.2 0.00 0.00 0.00 83 1018.8
20260504045508 11 98 0.0 3.2 0.00 0.00 0.00 83 1018.8
20260504045003 11 111 1.6 1.6 0.00 0.00 0.00 83 1018.9
20260504044501 11 119 1.6 3.2 0.00 0.00 0.00 83 1018.7
20260504043958 11 113 0.0 3.2 0.00 0.00 0.00 82 1019.0
20260504043455 11 125 0.0 3.2 0.00 0.00 0.00 82 1019.0
20260504042952 11 108 1.6 3.2 0.00 0.00 0.00 82 1019.0
20260504042449 11 130 1.6 3.2 0.00 0.00 0.00 82 1019.2
20260504041946 11 110 1.6 3.2 0.00 0.00 0.00 81 1019.4
20260504041442 11 72 0.0 1.6 0.00 0.00 0.00 81 1019.2
20260504040937 11 129 0.0 1.6 0.00 0.00 0.00 81 1019.2
20260504040436 11 116 1.6 3.2 0.00 0.00 0.00 81 1019.0
20260504035931 11 123 1.6 3.2 0.00 0.00 0.00 80 1019.1
20260504035429 11 87 1.6 3.2 0.00 0.00 0.00 80 1019.1
20260504034925 11 108 1.6 3.2 0.00 0.00 0.00 79 1019.2
20260504034423 11 128 0.0 3.2 0.00 0.00 0.00 79 1019.5
20260504033920 11 92 1.6 3.2 0.00 0.00 0.00 79 1019.4
20260504033418 11 115 1.6 3.2 0.00 0.00 0.00 79 1019.3
20260504032914 12 109 1.6 3.2 0.00 0.00 0.00 79 1019.4
20260504032411 12 103 1.6 3.2 0.00 0.00 0.00 78 1019.4
20260504031908 12 115 1.6 3.2 0.00 0.00 0.00 78 1019.3
20260504031405 12 111 1.6 3.2 0.00 0.00 0.00 78 1019.4
20260504030902 12 59 1.6 3.2 0.00 0.00 0.00 78 1019.2
20260504030359 12 120 0.0 1.6 0.00 0.00 0.00 77 1019.4
20260504025854 12 113 0.0 3.2 0.00 0.00 0.00 77 1019.3
20260504025352 12 113 1.6 3.2 0.00 0.00 0.00 77 1019.3
20260504024848 12 118 1.6 3.2 0.00 0.00 0.00 76 1019.3
20260504024345 12 121 1.6 3.2 0.00 0.00 0.00 76 1019.2
20260504023842 12 116 3.2 3.2 0.00 0.00 0.00 75 1019.2
20260504023339 12 112 1.6 3.2 0.00 0.00 0.00 74 1019.3
20260504022834 12 113 1.6 3.2 0.00 0.00 0.00 73 1019.2
20260504022331 13 125 3.2 4.8 0.00 0.00 0.00 73 1019.1
20260504021828 13 116 1.6 3.2 0.00 0.00 0.00 72 1019.1
20260504021325 13 106 0.0 1.6 0.00 0.00 0.00 72 1019.2
20260504020822 13 151 1.6 3.2 0.00 0.00 0.00 70 1019.0
20260504020319 13 114 1.6 3.2 0.00 0.00 0.00 70 1018.9
20260504015815 13 115 1.6 3.2 0.00 0.00 0.00 70 1018.9
20260504015311 13 116 1.6 1.6 0.00 0.00 0.00 70 1018.9
20260504014808 13 136 1.6 3.2 0.00 0.00 0.00 69 1018.8
20260504014304 14 147 1.6 3.2 0.00 0.00 0.00 68 1018.8
20260504013802 15 136 3.2 3.2 0.00 0.00 0.00 66 1018.8
20260504013259 15 89 0.0 1.6 0.00 0.00 0.00 65 1018.8
20260504012755 15 104 0.0 1.6 0.00 0.00 0.00 65 1018.6
20260504012253 15 111 1.6 3.2 0.00 0.00 0.00 64 1018.4
20260504011750 15 116 1.6 3.2 0.00 0.00 0.00 63 1018.3
20260504011247 15 116 1.6 3.2 0.00 0.00 0.00 61 1018.5
20260504010743 15 115 0.0 3.2 0.00 0.00 0.00 60 1018.6
20260504010238 16 113 1.6 3.2 0.00 0.00 0.00 59 1018.6
20260504005736 16 126 1.6 3.2 0.00 0.00 0.00 58 1018.6
20260504005233 16 108 1.6 3.2 0.00 0.00 0.00 57 1018.5
20260504004730 16 126 1.6 3.2 0.00 0.00 0.00 56 1018.4
20260504004227 16 116 1.6 3.2 0.00 0.00 0.00 55 1018.3
20260504003724 17 120 1.6 3.2 0.00 0.00 0.00 53 1018.2
20260504003221 17 126 1.6 3.2 0.00 0.00 0.00 52 1018.4
20260504002717 18 128 1.6 3.2 0.00 0.00 0.00 51 1018.3
20260504002214 18 124 0.0 1.6 0.00 0.00 0.00 49 1018.2
20260504001712 18 124 0.0 1.6 0.00 0.00 0.00 48 1018.4
20260504001209 18 142 0.0 1.6 0.00 0.00 0.00 48 1018.4
20260504000705 18 93 0.0 1.6 0.00 0.00 0.00 47 1018.3
20260504000204 19 113 0.0 1.6 0.00 0.00 0.00 47 1018.0
20260503235701 19 124 1.6 3.2 0.00 0.00 0.00 46 1018.1
20260503235157 20 142 1.6 3.2 0.00 0.00 0.00 45 1018.1
20260503234655 20 142 0.0 1.6 0.00 0.00 0.00 45 1018.2
20260503234153 20 309 0.0 1.6 0.00 0.00 0.00 44 1018.1
20260503233649 20 236 1.6 3.2 0.00 0.00 0.00 44 1018.1
20260503233145 20 343 0.0 6.4 0.00 0.00 0.00 43 1018.1
20260503232642 20 19 0.0 0.0 0.00 0.00 0.00 43 1018.0
20260503232140 20 255 1.6 3.2 0.00 0.00 0.00 43 1018.0
20260503231638 20 351 0.0 3.2 0.00 0.00 0.00 42 1018.0
20260503231134 20 29 3.2 4.8 0.00 0.00 0.00 43 1018.0
20260503230631 21 79 3.2 3.2 0.00 0.00 0.00 41 1018.1
20260503230128 21 31 0.0 4.8 0.00 0.00 0.00 42 1018.2
20260503225626 21 32 0.0 3.2 0.00 0.00 0.00 41 1018.1
20260503225125 21 303 1.6 8.0 0.00 0.00 0.00 41 1018.4
20260503224623 21 0 0.0 4.8 0.00 0.00 0.00 41 1018.3
20260503224121 21 24 3.2 4.8 0.00 0.00 0.00 41 1018.2
20260503223618 21 32 0.0 3.2 0.00 0.00 0.00 40 1018.3
20260503223114 21 358 1.6 8.0 0.00 0.00 0.00 40 1018.3
20260503222612 21 23 0.0 4.8 0.00 0.00 0.00 40 1018.4
20260503222109 21 265 1.6 8.0 0.00 0.00 0.00 39 1018.4
20260503221608 21 217 4.8 9.7 0.00 0.00 0.00 40 1018.4
20260503221105 21 207 3.2 6.4 0.00 0.00 0.00 40 1018.4
20260503220601 21 257 0.0 6.4 0.00 0.00 0.00 40 1018.4
20260503220058 21 55 1.6 3.2 0.00 0.00 0.00 41 1018.6
20260503215555 21 3 1.6 11.3 0.00 0.00 0.00 40 1018.6